Flag for U.S.A. Weather past 2 weeks in Panama City, Florida, U.S.A.

Now
58 °F

Sunny.


Feels Like: 58 °F
Forecast: 44 / 62 °F
Wind: 2 mph from North

Location: Tyndall Air Force Base

Current Time: Dec 18, 2014 at 12:30:18 PM

Latest Report: Dec 18, 2014 at 11:58 AM


Visibility: 10 mi

Pressure: 30.19 "Hg

Humidity: 59%

Dew point: 44 °F

Location of Panama CityLocation

Historic Weather in Panama City — Graph

°F

Panama City temperature yesterday

Maximum temperature yesterday: 59 °F (at 12:58 PM)
Minimum temperature yesterday: 44 °F (at 9:58 PM)
Average temperature yesterday: 51 °F

Past Weeks' High & Low Weather Summary

 TemperatureHumidityPressure
High77 °F (Dec 4, 11:58 AM)100% (Dec 3, 8:58 PM)30.35 "Hg (Dec 3, 8:58 PM)
Low40 °F (Dec 11, 5:58 AM)32% (Dec 12, 1:58 PM)30.08 "Hg (Dec 14, 2:58 PM)
Average55 °F78%30.20 "Hg
* Reported Dec 3 10:58 AM — Dec 18 10:58 AM, Panama City, Weather by CustomWeather, © 2014

Note: Actual official high and low records may vary slightly from our data, if they occured in-between our weather recording intervals... More about our weather records

Advertising

Panama City weather history for previous 24 hours

 ConditionsComfort  
Time TempWeatherWind HumidityBarometerVisibility
10:58 AM
Dec 18
56 °FSunny.3 mph65%30.22 "Hg10 mi
9:58 AM52 °FSunny.6 mph74%30.24 "Hg10 mi
8:58 AM49 °FPassing clouds.3 mph80%30.23 "Hg10 mi
7:58 AM47 °FSunny.5 mph83%30.22 "Hg10 mi
6:58 AM46 °FScattered clouds.5 mph83%30.22 "Hg10 mi
5:58 AM46 °FPassing clouds.3 mph85%30.19 "Hg10 mi
4:58 AM43 °FPassing clouds.1 mph91%30.18 "Hg10 mi
3:58 AM44 °FClear.3 mph86%30.17 "Hg10 mi
2:58 AM47 °FClear.5 mph83%30.19 "Hg10 mi
1:58 AM46 °FClear.5 mph86%30.18 "Hg10 mi
12:58 AM46 °FClear.3 mph89%30.18 "Hg10 mi
11:58 PM
Dec 17
47 °FClear.2 mph85%30.18 "Hg10 mi
10:58 PM45 °FClear.5 mph92%30.19 "Hg10 mi
9:58 PM44 °FClear.No wind92%30.20 "Hg10 mi
8:58 PM45 °FClear.No wind89%30.20 "Hg10 mi
7:58 PM49 °FClear.3 mph81%30.21 "Hg10 mi
6:58 PM50 °FClear.6 mph81%30.20 "Hg10 mi
5:58 PM50 °FClear.6 mph82%30.20 "Hg10 mi
4:58 PM53 °FClear.5 mph75%30.18 "Hg10 mi
3:58 PM56 °FClear.9 mph69%30.17 "Hg10 mi
2:58 PM57 °FSunny.8 mph64%30.16 "Hg10 mi
1:58 PM57 °FSunny.9 mph63%30.18 "Hg10 mi
12:58 PM59 °FSunny.9 mph59%30.19 "Hg10 mi
Weather by CustomWeather, © 2014

See weather overviewHow to use our weather pages